User: anonymous   Login
Location: Oshawa
(43.9000°N, 78.8670°W)
Time: 08:22:58
(UTC-04:00)
Language:

S-56A Canister/Altair - Orbit

View from above orbital plane
View from above orbital plane
View from above satellite
View from above satellite

Ground track
Ground track

The orbit data is extracted from the following two-line orbital elements,

1    82U 61004B   17174.71607266 +.00000131 +00000-0 +13395-3 0  9995
2    82 038.8599 272.9325 1170987 225.0324 124.9399 12.25846328674066
Epoch (UTC): 23 June 2017 17:11:08
Eccentricity: 0.1170987
inclination: 38.8599°
perigee height: 637 km
apogee height: 2497 km
right ascension of ascending node: 272.9325°
argument of perigee: 225.0324°
revolutions per day: 12.25846328
mean anomaly at epoch: 124.9399°
orbit number at epoch: 67406

The dashed part of the orbit path shows where the satellite is in the earth's shadow,  

DLR